Location: Unspecified
(44.0704°N, 88.6889°W)
Time: 10:43:57
(UTC+02:00)

Transit 2A - Pass Details

Date: 21 June 2019
Orbit: 594 x 965 km, 66.7° (Epoch: 17 July)

Event Time Altitude Azimuth Distance (km) Brightness Sun altitude
Rises 07:56:55 0° 195° (SSW) 3,601 - -22.5°
Reaches altitude 10° 07:59:29 10° 191° (SSW) 2,679 - -22.5°
Exits shadow 08:03:59 44° 163° (SSE) 1,312 6.7 -22.5°
Maximum altitude 08:05:39 56° 115° (ESE) 1,134 6.6 -22.5°
Drops below altitude 10° 08:11:48 10° 39° (NE) 2,669 9.5 -22.4°
Sets 08:14:21 0° 36° (NE) 3,587 10.4 -22.4°
